Time,TemperatureF,DewpointF,PressureIn,WindDirection,WindDirectionDegrees,WindSpeedMPH,WindSpeedGustMPH,Humidity,HourlyPrecipIn,Conditions,Clouds,dailyrainin,SoftwareType,DateUTC
2013-08-27 00:00:00,65.6,62.0,30.20,South,184,0.0,0.0,88,0.00,,---,0.00,VWS V14.01,2013-08-27 04:00:00,
2013-08-27 00:01:00,65.6,62.0,30.20,South,184,0.0,0.0,88,0.00,,---,0.00,VWS V14.01,2013-08-27 04:01:00,
2013-08-27 00:02:00,65.6,62.0,30.20,South,184,0.0,0.0,88,0.00,,---,0.00,VWS V14.01,2013-08-27 04:02:00,
2013-08-27 00:03:00,65.6,62.0,30.20,South,184,0.0,0.0,88,0.00,,---,0.00,VWS V14.01,2013-08-27 04:03:00,
2013-08-27 00:05:00,65.6,62.0,30.20,South,184,0.0,0.0,88,0.00,,---,0.00,VWS V14.01,2013-08-27 04:05:00,
2013-08-27 00:10:00,65.6,62.0,30.19,South,184,0.0,0.0,88,0.00,,---,0.00,VWS V14.01,2013-08-27 04:10:00,
2013-08-27 00:16:00,65.6,62.0,30.19,West,273,0.0,0.0,88,0.00,,---,0.00,VWS V14.01,2013-08-27 04:16:00,
2013-08-27 00:21:00,65.6,62.0,30.19,West,273,0.0,0.0,88,0.00,,---,0.00,VWS V14.01,2013-08-27 04:21:00,
2013-08-27 00:26:00,65.5,61.9,30.20,WSW,258,0.0,0.0,88,0.00,,---,0.00,VWS V14.01,2013-08-27 04:26:00,
2013-08-27 00:31:00,65.5,61.9,30.20,WSW,258,0.0,0.0,88,0.00,,---,0.00,VWS V14.01,2013-08-27 04:31:00,
2013-08-27 00:36:00,65.5,61.9,30.19,WSW,258,0.0,0.0,88,0.00,,---,0.00,VWS V14.01,2013-08-27 04:36:00,
2013-08-27 00:41:00,65.5,61.9,30.19,WSW,258,0.0,0.0,88,0.00,,---,0.00,VWS V14.01,2013-08-27 04:41:00,
2013-08-27 00:46:00,65.5,62.2,30.19,WSW,258,0.0,0.0,89,0.00,,---,0.00,VWS V14.01,2013-08-27 04:46:00,
2013-08-27 00:51:00,65.4,62.1,30.19,WSW,258,0.0,0.0,89,0.00,,---,0.00,VWS V14.01,2013-08-27 04:51:00,
2013-08-27 00:56:00,65.4,62.1,30.19,WSW,258,0.0,0.0,89,0.00,,---,0.00,VWS V14.01,2013-08-27 04:56:00,
2013-08-27 01:02:00,65.4,62.1,30.19,WSW,257,0.0,0.0,89,0.00,,---,0.00,VWS V14.01,2013-08-27 05:02:00,
2013-08-27 01:07:00,65.4,62.1,30.19,WSW,256,0.0,0.0,89,0.00,,---,0.00,VWS V14.01,2013-08-27 05:07:00,
2013-08-27 01:12:00,65.4,62.4,30.19,WSW,256,0.0,0.0,90,0.00,,---,0.00,VWS V14.01,2013-08-27 05:12:00,
2013-08-27 01:17:00,65.4,62.4,30.19,WSW,256,0.0,0.0,90,0.00,,---,0.00,VWS V14.01,2013-08-27 05:17:00,
2013-08-27 01:22:00,65.3,62.0,30.19,WSW,250,0.0,0.0,89,0.00,,---,0.00,VWS V14.01,2013-08-27 05:22:00,
2013-08-27 01:27:00,65.3,62.0,30.18,SSW,207,0.0,0.0,89,0.00,,---,0.00,VWS V14.01,2013-08-27 05:27:00,
2013-08-27 01:32:00,65.2,61.9,30.19,SSW,207,0.0,0.0,89,0.00,,---,0.00,VWS V14.01,2013-08-27 05:32:00,
2013-08-27 01:37:00,65.2,61.9,30.19,SSW,210,0.0,0.0,89,0.00,,---,0.00,VWS V14.01,2013-08-27 05:37:00,
2013-08-27 01:43:00,65.2,61.6,30.18,SSW,210,0.0,0.0,88,0.00,,---,0.00,VWS V14.01,2013-08-27 05:43:00,
2013-08-27 01:48:00,65.2,61.6,30.18,SSW,210,0.0,0.0,88,0.00,,---,0.00,VWS V14.01,2013-08-27 05:48:00,
2013-08-27 01:53:00,65.1,61.5,30.18,SSW,210,0.0,0.0,88,0.00,,---,0.00,VWS V14.01,2013-08-27 05:53:00,
2013-08-27 01:58:00,65.1,61.5,30.18,SSW,210,0.0,0.0,88,0.00,,---,0.00,VWS V14.01,2013-08-27 05:58:00,
2013-08-27 02:03:00,65.0,61.4,30.18,SSW,210,0.0,0.0,88,0.00,,---,0.00,VWS V14.01,2013-08-27 06:03:00,
2013-08-27 02:08:00,65.0,61.0,30.17,SSW,210,0.0,0.0,87,0.00,,---,0.00,VWS V14.01,2013-08-27 06:08:00,
2013-08-27 02:13:00,65.0,61.0,30.17,SSW,210,0.0,0.0,87,0.00,,---,0.00,VWS V14.01,2013-08-27 06:13:00,
2013-08-27 02:18:00,65.0,61.0,30.17,SSW,210,0.0,0.0,87,0.00,,---,0.00,VWS V14.01,2013-08-27 06:18:00,
2013-08-27 02:23:00,64.9,60.9,30.17,SSW,210,0.0,0.0,87,0.00,,---,0.00,VWS V14.01,2013-08-27 06:23:00,
2013-08-27 02:28:00,64.9,60.9,30.17,SSW,210,0.0,0.0,87,0.00,,---,0.00,VWS V14.01,2013-08-27 06:28:00,
2013-08-27 02:34:00,64.9,60.9,30.17,SSW,210,0.0,0.0,87,0.00,,---,0.00,VWS V14.01,2013-08-27 06:34:00,
2013-08-27 02:39:00,64.8,60.8,30.17,SSW,210,0.0,0.0,87,0.00,,---,0.00,VWS V14.01,2013-08-27 06:39:00,
2013-08-27 02:44:00,64.8,60.5,30.17,SSW,211,0.0,0.0,86,0.00,,---,0.00,VWS V14.01,2013-08-27 06:44:00,
2013-08-27 02:49:00,64.7,60.4,30.16,SSW,211,0.0,0.0,86,0.00,,---,0.00,VWS V14.01,2013-08-27 06:49:00,
2013-08-27 02:54:00,64.8,60.5,30.16,SSW,211,0.0,0.0,86,0.00,,---,0.00,VWS V14.01,2013-08-27 06:54:00,
2013-08-27 02:59:00,64.8,60.5,30.16,SSW,211,0.0,0.0,86,0.00,,---,0.00,VWS V14.01,2013-08-27 06:59:00,
2013-08-27 03:04:00,64.8,60.5,30.16,SSW,211,0.0,0.0,86,0.00,,---,0.00,VWS V14.01,2013-08-27 07:04:00,
2013-08-27 03:09:00,64.8,60.2,30.16,SSW,211,0.0,0.0,85,0.00,,---,0.00,VWS V14.01,2013-08-27 07:09:00,
2013-08-27 03:14:00,64.8,60.2,30.16,SSW,211,0.0,0.0,85,0.00,,---,0.00,VWS V14.01,2013-08-27 07:14:00,
2013-08-27 03:19:00,64.7,60.1,30.16,SSW,212,0.0,0.0,85,0.00,,---,0.00,VWS V14.01,2013-08-27 07:19:00,
2013-08-27 03:24:00,64.7,60.1,30.16,SSW,209,0.0,0.0,85,0.00,,---,0.00,VWS V14.01,2013-08-27 07:24:00,
2013-08-27 03:29:00,64.7,60.1,30.16,SSW,210,0.0,0.0,85,0.00,,---,0.00,VWS V14.01,2013-08-27 07:29:00,
2013-08-27 03:35:00,64.6,60.0,30.16,SSW,211,0.0,0.0,85,0.00,,---,0.00,VWS V14.01,2013-08-27 07:35:00,
2013-08-27 03:40:00,64.6,60.0,30.15,SSW,205,0.0,0.0,85,0.00,,---,0.00,VWS V14.01,2013-08-27 07:40:00,
2013-08-27 03:45:00,64.5,59.9,30.15,SSW,207,0.0,0.0,85,0.00,,---,0.00,VWS V14.01,2013-08-27 07:45:00,
2013-08-27 03:50:00,64.5,59.9,30.15,SSW,207,0.0,0.0,85,0.00,,---,0.00,VWS V14.01,2013-08-27 07:50:00,
2013-08-27 03:55:00,64.5,59.9,30.15,SSW,209,0.0,0.0,85,0.00,,---,0.00,VWS V14.01,2013-08-27 07:55:00,
2013-08-27 04:00:00,64.4,59.8,30.15,SSW,209,0.0,0.0,85,0.00,,---,0.00,VWS V14.01,2013-08-27 08:00:00,
2013-08-27 04:05:00,64.4,59.8,30.15,SSW,209,0.0,0.0,85,0.00,,---,0.00,VWS V14.01,2013-08-27 08:05:00,
2013-08-27 04:10:00,64.4,59.8,30.15,SSW,209,0.0,0.0,85,0.00,,---,0.00,VWS V14.01,2013-08-27 08:10:00,
2013-08-27 04:15:00,64.3,59.7,30.15,SSW,209,0.0,0.0,85,0.00,,---,0.00,VWS V14.01,2013-08-27 08:15:00,
2013-08-27 04:20:00,64.3,59.7,30.15,SSW,209,0.0,0.0,85,0.00,,---,0.00,VWS V14.01,2013-08-27 08:20:00,
2013-08-27 04:25:00,64.2,59.6,30.14,SSW,209,0.0,0.0,85,0.00,,---,0.00,VWS V14.01,2013-08-27 08:25:00,
2013-08-27 04:30:00,64.2,59.6,30.14,SSW,209,0.0,0.0,85,0.00,,---,0.00,VWS V14.01,2013-08-27 08:30:00,
2013-08-27 04:35:00,64.1,59.5,30.14,SSW,209,0.0,0.0,85,0.00,,---,0.00,VWS V14.01,2013-08-27 08:35:00,
2013-08-27 04:41:00,64.0,59.4,30.14,SSW,209,0.0,0.0,85,0.00,,---,0.00,VWS V14.01,2013-08-27 08:41:00,
2013-08-27 04:46:00,63.9,59.6,30.14,SW,215,0.0,0.0,86,0.00,,---,0.00,VWS V14.01,2013-08-27 08:46:00,
2013-08-27 04:51:00,63.9,59.6,30.14,SW,219,0.0,0.0,86,0.00,,---,0.00,VWS V14.01,2013-08-27 08:51:00,
2013-08-27 04:56:00,63.9,59.6,30.14,SW,219,0.0,0.0,86,0.00,,---,0.00,VWS V14.01,2013-08-27 08:56:00,
2013-08-27 05:01:00,63.9,59.6,30.14,SW,219,0.0,0.0,86,0.00,,---,0.00,VWS V14.01,2013-08-27 09:01:00,
2013-08-27 05:06:00,63.9,60.0,30.14,SW,219,0.0,0.0,87,0.00,,---,0.00,VWS V14.01,2013-08-27 09:06:00,
2013-08-27 05:11:00,63.9,60.0,30.14,SW,219,0.0,0.0,87,0.00,,---,0.00,VWS V14.01,2013-08-27 09:11:00,
2013-08-27 05:16:00,63.9,60.0,30.14,SW,220,0.0,0.0,87,0.00,,---,0.00,VWS V14.01,2013-08-27 09:16:00,
2013-08-27 05:21:00,63.9,60.0,30.14,SW,223,0.0,0.0,87,0.00,,---,0.00,VWS V14.01,2013-08-27 09:21:00,
2013-08-27 05:26:00,64.0,60.1,30.13,SW,223,0.0,0.0,87,0.00,,---,0.00,VWS V14.01,2013-08-27 09:26:00,
2013-08-27 05:31:00,64.0,60.1,30.13,SW,225,0.0,0.0,87,0.00,,---,0.00,VWS V14.01,2013-08-27 09:31:00,
2013-08-27 05:37:00,64.0,60.1,30.13,SW,225,0.0,0.0,87,0.00,,---,0.00,VWS V14.01,2013-08-27 09:37:00,
2013-08-27 05:42:00,64.0,60.1,30.14,SW,225,0.0,0.0,87,0.00,,---,0.00,VWS V14.01,2013-08-27 09:42:00,
2013-08-27 05:47:00,64.0,60.1,30.13,SW,225,0.0,0.0,87,0.00,,---,0.00,VWS V14.01,2013-08-27 09:47:00,
2013-08-27 05:52:00,64.1,60.2,30.13,SW,225,0.0,0.0,87,0.00,,---,0.00,VWS V14.01,2013-08-27 09:52:00,
2013-08-27 05:57:00,64.1,60.2,30.14,SW,225,0.0,0.0,87,0.00,,---,0.00,VWS V14.01,2013-08-27 09:57:00,
2013-08-27 06:02:00,64.1,60.2,30.14,SW,225,0.0,0.0,87,0.00,,---,0.00,VWS V14.01,2013-08-27 10:02:00,
2013-08-27 06:07:00,64.0,60.1,30.14,SW,225,0.0,0.0,87,0.00,,---,0.00,VWS V14.01,2013-08-27 10:07:00,
2013-08-27 06:12:00,64.0,60.1,30.14,SW,225,0.0,0.0,87,0.00,,---,0.00,VWS V14.01,2013-08-27 10:12:00,
2013-08-27 06:17:00,64.0,60.1,30.14,SW,225,0.0,0.0,87,0.00,,---,0.00,VWS V14.01,2013-08-27 10:17:00,
2013-08-27 06:22:00,64.0,60.1,30.14,SW,226,0.0,0.0,87,0.00,,---,0.00,VWS V14.01,2013-08-27 10:22:00,
2013-08-27 06:28:00,63.9,60.3,30.14,SW,232,0.0,0.0,88,0.00,,---,0.00,VWS V14.01,2013-08-27 10:28:00,
2013-08-27 06:33:00,63.9,60.3,30.13,SW,234,0.0,0.0,88,0.00,,---,0.00,VWS V14.01,2013-08-27 10:33:00,
2013-08-27 06:38:00,63.9,60.3,30.13,SW,234,0.0,0.0,88,0.00,,---,0.00,VWS V14.01,2013-08-27 10:38:00,
2013-08-27 06:43:00,63.8,60.2,30.13,SW,234,0.0,0.0,88,0.00,,---,0.00,VWS V14.01,2013-08-27 10:43:00,
2013-08-27 06:48:00,63.8,60.5,30.13,SW,234,0.0,0.0,89,0.00,,---,0.00,VWS V14.01,2013-08-27 10:48:00,
2013-08-27 06:53:00,63.8,60.5,30.13,SW,234,0.0,0.0,89,0.00,,---,0.00,VWS V14.01,2013-08-27 10:53:00,
2013-08-27 06:58:00,63.8,60.5,30.14,SW,234,0.0,0.0,89,0.00,,---,0.00,VWS V14.01,2013-08-27 10:58:00,
2013-08-27 07:03:00,63.8,60.5,30.14,SW,234,0.0,0.0,89,0.00,,---,0.00,VWS V14.01,2013-08-27 11:03:00,
2013-08-27 07:09:00,63.8,60.5,30.14,SW,234,0.0,0.0,89,0.00,,---,0.00,VWS V14.01,2013-08-27 11:09:00,
2013-08-27 07:14:00,63.9,60.6,30.14,SW,234,0.0,0.0,89,0.00,,---,0.00,VWS V14.01,2013-08-27 11:14:00,
2013-08-27 07:19:00,63.9,60.6,30.13,SW,234,0.0,0.0,89,0.00,,---,0.00,VWS V14.01,2013-08-27 11:19:00,
2013-08-27 07:24:00,64.0,61.0,30.13,SW,234,0.0,0.0,90,0.00,,---,0.00,VWS V14.01,2013-08-27 11:24:00,
2013-08-27 07:29:00,64.0,61.0,30.13,SW,234,0.0,0.0,90,0.00,,---,0.00,VWS V14.01,2013-08-27 11:29:00,
2013-08-27 07:34:00,64.1,61.1,30.13,SW,234,0.0,0.0,90,0.00,,---,0.00,VWS V14.01,2013-08-27 11:34:00,
2013-08-27 07:39:00,64.2,61.2,30.13,SW,233,0.0,0.0,90,0.00,,---,0.00,VWS V14.01,2013-08-27 11:39:00,
2013-08-27 07:44:00,64.4,61.4,30.13,SW,234,0.0,0.0,90,0.00,,---,0.00,VWS V14.01,2013-08-27 11:44:00,
2013-08-27 07:49:00,65.2,62.2,30.13,SW,233,0.0,0.0,90,0.00,,---,0.00,VWS V14.01,2013-08-27 11:49:00,
2013-08-27 07:55:00,65.8,62.5,30.13,SW,233,0.0,0.0,89,0.00,,---,0.00,VWS V14.01,2013-08-27 11:55:00,
2013-08-27 08:00:00,66.4,63.1,30.13,SW,234,0.0,0.0,89,0.00,,---,0.00,VWS V14.01,2013-08-27 12:00:00,
2013-08-27 08:05:00,67.1,63.4,30.13,SW,234,0.0,0.0,88,0.00,,---,0.00,VWS V14.01,2013-08-27 12:05:00,
2013-08-27 08:10:00,68.0,64.3,30.13,WSW,249,0.0,0.0,88,0.00,,---,0.00,VWS V14.01,2013-08-27 12:10:00,
2013-08-27 08:15:00,69.3,64.9,30.13,West,281,0.0,0.0,86,0.00,,---,0.00,VWS V14.01,2013-08-27 12:15:00,
2013-08-27 08:20:00,70.2,65.8,30.13,West,261,0.0,0.0,86,0.00,,---,0.00,VWS V14.01,2013-08-27 12:20:00,
2013-08-27 08:25:00,70.8,65.4,30.13,NW,317,0.0,0.0,83,0.00,,---,0.00,VWS V14.01,2013-08-27 12:25:00,
2013-08-27 08:30:00,71.1,65.7,30.13,NW,308,0.0,0.0,83,0.00,,---,0.00,VWS V14.01,2013-08-27 12:30:00,
2013-08-27 08:36:00,71.4,65.6,30.13,NW,308,0.0,0.0,82,0.00,,---,0.00,VWS V14.01,2013-08-27 12:36:00,
2013-08-27 08:41:00,72.0,66.6,30.13,WNW,298,0.0,0.0,83,0.00,,---,0.00,VWS V14.01,2013-08-27 12:41:00,
2013-08-27 08:46:00,72.6,66.1,30.13,West,265,0.0,0.0,80,0.00,,---,0.00,VWS V14.01,2013-08-27 12:46:00,
2013-08-27 08:51:00,73.0,66.5,30.13,WNW,293,0.0,0.0,80,0.00,,---,0.00,VWS V14.01,2013-08-27 12:51:00,
2013-08-27 08:56:00,73.3,66.8,30.13,WNW,296,0.0,0.0,80,0.00,,---,0.00,VWS V14.01,2013-08-27 12:56:00,
2013-08-27 09:01:00,73.7,66.8,30.12,WNW,289,0.0,0.0,79,0.00,,---,0.00,VWS V14.01,2013-08-27 13:01:00,
2013-08-27 09:06:00,74.0,67.1,30.13,WSW,252,0.0,0.0,79,0.00,,---,0.00,VWS V14.01,2013-08-27 13:06:00,
2013-08-27 09:11:00,74.6,67.7,30.13,WNW,294,0.0,0.0,79,0.00,,---,0.00,VWS V14.01,2013-08-27 13:11:00,
2013-08-27 09:16:00,75.0,67.7,30.13,NW,304,0.0,0.0,78,0.00,,---,0.00,VWS V14.01,2013-08-27 13:16:00,
2013-08-27 09:22:00,75.6,67.9,30.13,NW,309,0.0,0.0,77,0.00,,---,0.00,VWS V14.01,2013-08-27 13:22:00,
2013-08-27 09:27:00,76.1,68.4,30.13,NW,317,0.0,0.0,77,0.00,,---,0.00,VWS V14.01,2013-08-27 13:27:00,
2013-08-27 09:32:00,76.8,68.7,30.13,NW,323,0.0,0.0,76,0.00,,---,0.00,VWS V14.01,2013-08-27 13:32:00,
2013-08-27 09:37:00,77.8,69.2,30.13,NNW,331,0.0,0.0,75,0.00,,---,0.00,VWS V14.01,2013-08-27 13:37:00,
2013-08-27 09:42:00,78.4,69.4,30.12,WNW,292,0.0,0.0,74,0.00,,---,0.00,VWS V14.01,2013-08-27 13:42:00,
2013-08-27 09:47:00,78.5,68.7,30.12,North,10,0.0,0.0,72,0.00,,---,0.00,VWS V14.01,2013-08-27 13:47:00,
2013-08-27 09:53:00,79.2,69.8,30.12,SW,227,0.0,0.0,73,0.00,,---,0.00,VWS V14.01,2013-08-27 13:53:00,
2013-08-27 09:58:00,79.9,69.7,30.12,NW,317,0.0,0.0,71,0.00,,---,0.00,VWS V14.01,2013-08-27 13:58:00,
2013-08-27 10:03:00,80.2,69.9,30.11,NW,317,0.0,0.0,71,0.00,,---,0.00,VWS V14.01,2013-08-27 14:03:00,
2013-08-27 10:08:00,80.2,69.5,30.11,NW,317,0.0,0.0,70,0.00,,---,0.00,VWS V14.01,2013-08-27 14:08:00,
2013-08-27 10:13:00,80.2,69.5,30.11,NW,315,0.0,0.0,70,0.00,,---,0.00,VWS V14.01,2013-08-27 14:13:00,
2013-08-27 10:18:00,80.4,69.3,30.11,West,269,0.0,0.0,69,0.00,,---,0.00,VWS V14.01,2013-08-27 14:18:00,
2013-08-27 10:23:00,80.7,70.0,30.12,West,273,0.0,0.0,70,0.00,,---,0.00,VWS V14.01,2013-08-27 14:23:00,
2013-08-27 10:28:00,80.9,69.8,30.12,West,260,0.0,0.0,69,0.00,,---,0.00,VWS V14.01,2013-08-27 14:28:00,
2013-08-27 10:33:00,81.2,69.6,30.12,WNW,287,0.0,0.0,68,0.00,,---,0.00,VWS V14.01,2013-08-27 14:33:00,
2013-08-27 10:38:00,81.2,70.1,30.12,WSW,254,0.0,0.0,69,0.00,,---,0.00,VWS V14.01,2013-08-27 14:38:00,
2013-08-27 10:43:00,81.8,70.2,30.12,North,360,0.0,0.0,68,0.00,,---,0.00,VWS V14.01,2013-08-27 14:43:00,
2013-08-27 10:48:00,81.9,70.7,30.12,NNW,327,0.0,0.0,69,0.00,,---,0.00,VWS V14.01,2013-08-27 14:48:00,
2013-08-27 10:54:00,82.6,71.0,30.11,NW,310,0.0,0.0,68,0.00,,---,0.00,VWS V14.01,2013-08-27 14:54:00,
2013-08-27 10:59:00,82.2,70.2,30.11,NW,315,0.0,0.0,67,0.00,,---,0.00,VWS V14.01,2013-08-27 14:59:00,
2013-08-27 11:04:00,82.5,70.9,30.11,NNW,335,0.0,0.0,68,0.00,,---,0.00,VWS V14.01,2013-08-27 15:04:00,
2013-08-27 11:09:00,82.9,71.3,30.11,North,355,0.0,0.0,68,0.00,,---,0.00,VWS V14.01,2013-08-27 15:09:00,
2013-08-27 11:14:00,83.1,71.4,30.12,WNW,291,0.0,0.0,68,0.00,,---,0.00,VWS V14.01,2013-08-27 15:14:00,
2013-08-27 11:19:00,83.5,70.1,30.12,NNW,327,0.0,0.0,64,0.00,,---,0.00,VWS V14.01,2013-08-27 15:19:00,
2013-08-27 11:24:00,83.4,69.9,30.12,North,5,0.0,0.0,64,0.00,,---,0.00,VWS V14.01,2013-08-27 15:24:00,
2013-08-27 11:29:00,83.5,71.8,30.11,North,355,0.0,0.0,68,0.00,,---,0.00,VWS V14.01,2013-08-27 15:29:00,
2013-08-27 11:34:00,83.9,70.0,30.11,NW,306,0.0,0.0,63,0.00,,---,0.00,VWS V14.01,2013-08-27 15:34:00,
2013-08-27 11:39:00,83.7,70.2,30.11,NNE,26,0.0,0.0,64,0.00,,---,0.00,VWS V14.01,2013-08-27 15:39:00,
2013-08-27 11:44:00,83.9,70.4,30.11,NW,321,0.0,0.0,64,0.00,,---,0.00,VWS V14.01,2013-08-27 15:44:00,
2013-08-27 11:49:00,84.0,71.4,30.11,NNE,21,0.0,0.0,66,0.00,,---,0.00,VWS V14.01,2013-08-27 15:49:00,
2013-08-27 11:55:00,84.3,71.3,30.11,NW,313,0.0,0.0,65,0.00,,---,0.00,VWS V14.01,2013-08-27 15:55:00,
2013-08-27 12:00:00,84.8,71.7,30.11,NNW,328,0.0,0.0,65,0.00,,---,0.00,VWS V14.01,2013-08-27 16:00:00,
2013-08-27 12:05:00,84.9,70.9,30.10,NNW,340,0.0,0.0,63,0.00,,---,0.00,VWS V14.01,2013-08-27 16:05:00,
2013-08-27 12:10:00,85.0,71.5,30.10,North,360,0.0,0.0,64,0.00,,---,0.00,VWS V14.01,2013-08-27 16:10:00,
2013-08-27 12:15:00,85.0,70.5,30.10,NW,310,0.0,0.0,62,0.00,,---,0.00,VWS V14.01,2013-08-27 16:15:00,
2013-08-27 12:20:00,84.8,70.8,30.10,NNE,13,0.0,0.0,63,0.00,,---,0.00,VWS V14.01,2013-08-27 16:20:00,
2013-08-27 12:25:00,85.4,70.9,30.10,NW,308,0.0,0.0,62,0.00,,---,0.00,VWS V14.01,2013-08-27 16:25:00,
2013-08-27 12:30:00,85.8,71.8,30.10,North,350,0.0,0.0,63,0.00,,---,0.00,VWS V14.01,2013-08-27 16:30:00,
2013-08-27 12:35:00,85.9,70.9,30.10,NW,325,0.0,0.0,61,0.00,,---,0.00,VWS V14.01,2013-08-27 16:35:00,
2013-08-27 12:40:00,86.0,71.0,30.10,NNW,330,0.0,0.0,61,0.00,,---,0.00,VWS V14.01,2013-08-27 16:40:00,
2013-08-27 12:45:00,86.3,71.8,30.10,WNW,290,0.0,0.0,62,0.00,,---,0.00,VWS V14.01,2013-08-27 16:45:00,
2013-08-27 12:50:00,86.1,70.6,30.09,NW,317,0.0,0.0,60,0.00,,---,0.00,VWS V14.01,2013-08-27 16:50:00,
2013-08-27 12:56:00,86.3,69.8,30.09,NW,323,0.0,0.0,58,0.00,,---,0.00,VWS V14.01,2013-08-27 16:56:00,
2013-08-27 13:01:00,86.8,70.8,30.09,North,355,0.0,0.0,59,0.00,,---,0.00,VWS V14.01,2013-08-27 17:01:00,
2013-08-27 13:06:00,86.8,70.8,30.09,NNE,23,0.0,0.0,59,0.00,,---,0.00,VWS V14.01,2013-08-27 17:06:00,
2013-08-27 13:11:00,87.4,72.8,30.09,North,350,0.0,0.0,62,0.00,,---,0.00,VWS V14.01,2013-08-27 17:11:00,
2013-08-27 13:16:00,88.1,73.0,30.09,NNW,344,0.0,0.0,61,0.00,,---,0.00,VWS V14.01,2013-08-27 17:16:00,
2013-08-27 13:21:00,88.0,71.9,30.09,NNE,30,0.0,0.0,59,0.00,,---,0.00,VWS V14.01,2013-08-27 17:21:00,
2013-08-27 13:26:00,87.2,71.1,30.09,NW,306,0.0,0.0,59,0.00,,---,0.00,VWS V14.01,2013-08-27 17:26:00,
2013-08-27 13:31:00,87.2,70.1,30.08,East,86,0.0,0.0,57,0.00,,---,0.00,VWS V14.01,2013-08-27 17:31:00,
2013-08-27 13:36:00,86.6,71.1,30.08,NW,309,0.0,0.0,60,0.00,,---,0.00,VWS V14.01,2013-08-27 17:36:00,
2013-08-27 13:41:00,87.5,71.9,30.08,WNW,292,0.0,0.0,60,0.00,,---,0.00,VWS V14.01,2013-08-27 17:41:00,
2013-08-27 13:46:00,87.1,71.5,30.08,North,355,0.0,0.0,60,0.00,,---,0.00,VWS V14.01,2013-08-27 17:46:00,
2013-08-27 13:52:00,87.7,72.1,30.08,NNW,338,0.0,0.0,60,0.00,,---,0.00,VWS V14.01,2013-08-27 17:52:00,
2013-08-27 13:57:00,85.9,70.9,30.08,NNW,329,0.0,0.0,61,0.00,,---,0.00,VWS V14.01,2013-08-27 17:57:00,
2013-08-27 14:02:00,87.1,71.0,30.08,North,360,0.0,0.0,59,0.00,,---,0.00,VWS V14.01,2013-08-27 18:02:00,
2013-08-27 14:07:00,87.7,71.1,30.08,SE,135,0.0,0.0,58,0.00,,---,0.00,VWS V14.01,2013-08-27 18:07:00,
2013-08-27 14:12:00,87.8,71.7,30.07,NW,309,0.0,0.0,59,0.00,,---,0.00,VWS V14.01,2013-08-27 18:12:00,
2013-08-27 14:17:00,87.3,71.7,30.08,ENE,59,0.0,0.0,60,0.00,,---,0.00,VWS V14.01,2013-08-27 18:17:00,
2013-08-27 14:22:00,87.5,70.9,30.07,ENE,62,0.0,0.0,58,0.00,,---,0.00,VWS V14.01,2013-08-27 18:22:00,
2013-08-27 14:27:00,87.0,71.9,30.07,NW,315,0.0,0.0,61,0.00,,---,0.00,VWS V14.01,2013-08-27 18:27:00,
2013-08-27 14:33:00,87.2,71.1,30.07,North,355,0.0,0.0,59,0.00,,---,0.00,VWS V14.01,2013-08-27 18:33:00,
2013-08-27 14:38:00,87.5,71.4,30.07,NW,315,0.0,0.0,59,0.00,,---,0.00,VWS V14.01,2013-08-27 18:38:00,
2013-08-27 14:43:00,87.6,72.0,30.07,NNE,31,0.0,0.0,60,0.00,,---,0.00,VWS V14.01,2013-08-27 18:43:00,
2013-08-27 14:48:00,87.6,72.0,30.07,NE,46,0.0,0.0,60,0.00,,---,0.00,VWS V14.01,2013-08-27 18:48:00,
2013-08-27 14:53:00,87.1,71.0,30.06,East,86,0.0,0.0,59,0.00,,---,0.00,VWS V14.01,2013-08-27 18:53:00,
2013-08-27 14:58:00,86.8,71.3,30.06,SE,138,0.0,0.0,60,0.00,,---,0.00,VWS V14.01,2013-08-27 18:58:00,
2013-08-27 15:03:00,86.4,70.9,30.06,SE,140,0.0,0.0,60,0.00,,---,0.00,VWS V14.01,2013-08-27 19:03:00,
2013-08-27 15:08:00,87.2,72.1,30.06,North,9,0.0,0.0,61,0.00,,---,0.00,VWS V14.01,2013-08-27 19:08:00,
2013-08-27 15:13:00,87.5,72.9,30.05,NNW,348,0.0,0.0,62,0.00,,---,0.00,VWS V14.01,2013-08-27 19:13:00,
2013-08-27 15:18:00,88.8,71.1,30.05,NNE,28,0.0,0.0,56,0.00,,---,0.00,VWS V14.01,2013-08-27 19:18:00,
2013-08-27 15:23:00,88.4,69.7,30.05,NNE,28,0.0,0.0,54,0.00,,---,0.00,VWS V14.01,2013-08-27 19:23:00,
2013-08-27 15:28:00,87.5,69.4,30.05,ESE,108,0.0,0.0,55,0.00,,---,0.00,VWS V14.01,2013-08-27 19:28:00,
2013-08-27 15:33:00,87.2,70.6,30.04,NNE,27,0.0,0.0,58,0.00,,---,0.00,VWS V14.01,2013-08-27 19:33:00,
2013-08-27 15:39:00,88.2,70.0,30.04,ENE,65,0.0,0.0,55,0.00,,---,0.00,VWS V14.01,2013-08-27 19:39:00,
2013-08-27 15:44:00,87.2,70.1,30.04,SE,126,0.0,0.0,57,0.00,,---,0.00,VWS V14.01,2013-08-27 19:44:00,
2013-08-27 15:49:00,88.3,72.7,30.04,NNW,346,0.0,0.0,60,0.00,,---,0.00,VWS V14.01,2013-08-27 19:49:00,
2013-08-27 15:54:00,87.6,70.5,30.04,NE,40,0.0,0.0,57,0.00,,---,0.00,VWS V14.01,2013-08-27 19:54:00,
2013-08-27 15:59:00,86.6,71.1,30.04,NE,39,0.0,0.0,60,0.00,,---,0.00,VWS V14.01,2013-08-27 19:59:00,
2013-08-27 16:04:00,86.3,70.8,30.04,NE,39,0.0,0.0,60,0.00,,---,0.00,VWS V14.01,2013-08-27 20:04:00,
2013-08-27 16:09:00,86.2,68.7,30.03,East,93,0.0,0.0,56,0.00,,---,0.00,VWS V14.01,2013-08-27 20:09:00,
2013-08-27 16:14:00,86.1,69.1,30.03,South,190,0.0,0.0,57,0.00,,---,0.00,VWS V14.01,2013-08-27 20:14:00,
2013-08-27 16:19:00,87.0,70.4,30.03,NW,307,0.0,0.0,58,0.00,,---,0.00,VWS V14.01,2013-08-27 20:19:00,
2013-08-27 16:24:00,87.7,69.5,30.03,NW,323,0.0,0.0,55,0.00,,---,0.00,VWS V14.01,2013-08-27 20:24:00,
2013-08-27 16:29:00,87.8,71.2,30.03,WNW,301,0.0,0.0,58,0.00,,---,0.00,VWS V14.01,2013-08-27 20:29:00,
2013-08-27 16:34:00,88.1,69.4,30.03,North,360,0.0,0.0,54,0.00,,---,0.00,VWS V14.01,2013-08-27 20:34:00,
2013-08-27 16:39:00,87.8,68.6,30.03,North,5,0.0,0.0,53,0.00,,---,0.00,VWS V14.01,2013-08-27 20:39:00,
2013-08-27 16:44:00,87.4,69.3,30.04,NNW,338,0.0,0.0,55,0.00,,---,0.00,VWS V14.01,2013-08-27 20:44:00,
2013-08-27 16:50:00,87.1,68.4,30.03,North,355,0.0,0.0,54,0.00,,---,0.00,VWS V14.01,2013-08-27 20:50:00,
2013-08-27 16:55:00,86.5,70.5,30.03,North,360,0.0,0.0,59,0.00,,---,0.00,VWS V14.01,2013-08-27 20:55:00,
2013-08-27 17:00:00,86.9,70.9,30.03,North,360,0.0,0.0,59,0.00,,---,0.00,VWS V14.01,2013-08-27 21:00:00,
2013-08-27 17:05:00,87.7,69.5,30.03,NNW,343,0.0,0.0,55,0.00,,---,0.00,VWS V14.01,2013-08-27 21:05:00,
2013-08-27 17:10:00,87.3,68.1,30.03,NNW,343,0.0,0.0,53,0.00,,---,0.00,VWS V14.01,2013-08-27 21:10:00,
2013-08-27 17:15:00,87.3,68.6,30.03,NNE,18,0.0,0.0,54,0.00,,---,0.00,VWS V14.01,2013-08-27 21:15:00,
2013-08-27 17:20:00,87.2,68.5,30.03,NNE,19,0.0,0.0,54,0.00,,---,0.00,VWS V14.01,2013-08-27 21:20:00,
2013-08-27 17:25:00,86.8,69.8,30.03,NNE,17,0.0,0.0,57,0.00,,---,0.00,VWS V14.01,2013-08-27 21:25:00,
2013-08-27 17:30:00,86.3,70.3,30.03,NNE,15,0.0,0.0,59,0.00,,---,0.00,VWS V14.01,2013-08-27 21:30:00,
2013-08-27 17:35:00,86.1,69.6,30.04,NNE,15,0.0,0.0,58,0.00,,---,0.00,VWS V14.01,2013-08-27 21:35:00,
2013-08-27 17:40:00,85.5,70.5,30.04,NNE,15,0.0,0.0,61,0.00,,---,0.00,VWS V14.01,2013-08-27 21:40:00,
2013-08-27 17:45:00,84.8,70.8,30.03,NNE,15,0.0,0.0,63,0.00,,---,0.00,VWS V14.01,2013-08-27 21:45:00,
2013-08-27 17:50:00,84.8,72.2,30.03,NNE,15,0.0,0.0,66,0.00,,---,0.00,VWS V14.01,2013-08-27 21:50:00,
2013-08-27 17:55:00,85.0,70.1,30.03,NNE,15,0.0,0.0,61,0.00,,---,0.00,VWS V14.01,2013-08-27 21:55:00,
2013-08-27 18:01:00,85.2,71.2,30.03,NNW,331,0.0,0.0,63,0.00,,---,0.00,VWS V14.01,2013-08-27 22:01:00,
2013-08-27 18:06:00,85.4,70.4,30.03,NNW,329,0.0,0.0,61,0.00,,---,0.00,VWS V14.01,2013-08-27 22:06:00,
2013-08-27 18:11:00,85.4,70.4,30.03,SW,232,0.0,0.0,61,0.00,,---,0.00,VWS V14.01,2013-08-27 22:11:00,
2013-08-27 18:16:00,85.5,70.5,30.03,WSW,238,0.0,0.0,61,0.00,,---,0.00,VWS V14.01,2013-08-27 22:16:00,
2013-08-27 18:21:00,85.7,71.2,30.03,SW,236,0.0,0.0,62,0.00,,---,0.00,VWS V14.01,2013-08-27 22:21:00,
2013-08-27 18:26:00,85.7,71.2,30.03,WSW,239,0.0,0.0,62,0.00,,---,0.00,VWS V14.01,2013-08-27 22:26:00,
2013-08-27 18:31:00,85.4,71.4,30.03,SSW,213,0.0,0.0,63,0.00,,---,0.00,VWS V14.01,2013-08-27 22:31:00,
2013-08-27 18:36:00,85.0,71.5,30.03,WSW,248,0.0,0.0,64,0.00,,---,0.00,VWS V14.01,2013-08-27 22:36:00,
2013-08-27 18:41:00,84.6,71.6,30.03,WSW,244,0.0,0.0,65,0.00,,---,0.00,VWS V14.01,2013-08-27 22:41:00,
2013-08-27 18:46:00,84.5,71.4,30.03,SW,221,0.0,0.0,65,0.00,,---,0.00,VWS V14.01,2013-08-27 22:46:00,
2013-08-27 18:52:00,84.5,71.4,30.03,SW,223,0.0,0.0,65,0.00,,---,0.00,VWS V14.01,2013-08-27 22:52:00,
2013-08-27 18:57:00,84.4,71.4,30.03,SSW,198,0.0,0.0,65,0.00,,---,0.00,VWS V14.01,2013-08-27 22:57:00,
2013-08-27 19:02:00,84.3,71.3,30.03,WSW,240,0.0,0.0,65,0.00,,---,0.00,VWS V14.01,2013-08-27 23:02:00,
2013-08-27 19:07:00,84.2,71.2,30.03,SSW,203,0.0,0.0,65,0.00,,---,0.00,VWS V14.01,2013-08-27 23:07:00,
2013-08-27 19:12:00,84.0,71.4,30.03,SW,215,0.0,0.0,66,0.00,,---,0.00,VWS V14.01,2013-08-27 23:12:00,
2013-08-27 19:17:00,83.8,71.2,30.03,SSW,201,0.0,0.0,66,0.00,,---,0.00,VWS V14.01,2013-08-27 23:17:00,
2013-08-27 19:22:00,83.6,71.5,30.03,SSW,202,0.0,0.0,67,0.00,,---,0.00,VWS V14.01,2013-08-27 23:22:00,
2013-08-27 19:28:00,83.4,71.3,30.03,WSW,254,0.0,0.0,67,0.00,,---,0.00,VWS V14.01,2013-08-27 23:28:00,
2013-08-27 19:33:00,83.2,71.6,30.03,SSW,213,0.0,0.0,68,0.00,,---,0.00,VWS V14.01,2013-08-27 23:33:00,
2013-08-27 19:38:00,83.0,71.8,30.03,SW,215,0.0,0.0,69,0.00,,---,0.00,VWS V14.01,2013-08-27 23:38:00,
2013-08-27 19:43:00,82.7,71.5,30.03,SW,215,0.0,0.0,69,0.00,,---,0.00,VWS V14.01,2013-08-27 23:43:00,
2013-08-27 19:48:00,82.5,71.3,30.03,SW,215,0.0,0.0,69,0.00,,---,0.00,VWS V14.01,2013-08-27 23:48:00,
2013-08-27 19:53:00,82.3,71.5,30.03,SW,215,0.0,0.0,70,0.00,,---,0.00,VWS V14.01,2013-08-27 23:53:00,
2013-08-27 19:58:00,82.0,71.7,30.03,SW,215,0.0,0.0,71,0.00,,---,0.00,VWS V14.01,2013-08-27 23:58:00,
2013-08-27 20:04:00,81.7,71.4,30.03,SW,215,0.0,0.0,71,0.00,,---,0.00,VWS V14.01,2013-08-28 00:04:00,
2013-08-27 20:09:00,81.5,71.2,30.04,SW,215,0.0,0.0,71,0.00,,---,0.00,VWS V14.01,2013-08-28 00:09:00,
2013-08-27 20:14:00,81.2,71.3,30.03,SW,215,0.0,0.0,72,0.00,,---,0.00,VWS V14.01,2013-08-28 00:14:00,
2013-08-27 20:19:00,80.9,71.4,30.04,SW,215,0.0,0.0,73,0.00,,---,0.00,VWS V14.01,2013-08-28 00:19:00,
2013-08-27 20:24:00,80.6,71.6,30.03,SW,215,0.0,0.0,74,0.00,,---,0.00,VWS V14.01,2013-08-28 00:24:00,
2013-08-27 20:29:00,80.3,71.7,30.03,SW,215,0.0,0.0,75,0.00,,---,0.00,VWS V14.01,2013-08-28 00:29:00,
2013-08-27 20:34:00,80.0,71.8,30.03,SW,215,0.0,0.0,76,0.00,,---,0.00,VWS V14.01,2013-08-28 00:34:00,
2013-08-27 20:39:00,79.8,71.6,30.03,SW,215,0.0,0.0,76,0.00,,---,0.00,VWS V14.01,2013-08-28 00:39:00,
2013-08-27 20:44:00,79.5,71.7,30.03,SW,215,0.0,0.0,77,0.00,,---,0.00,VWS V14.01,2013-08-28 00:44:00,
2013-08-27 20:50:00,79.2,71.8,30.04,SW,215,0.0,0.0,78,0.00,,---,0.00,VWS V14.01,2013-08-28 00:50:00,
2013-08-27 20:55:00,78.9,71.8,30.04,SW,215,0.0,0.0,79,0.00,,---,0.00,VWS V14.01,2013-08-28 00:55:00,
2013-08-27 21:00:00,78.5,71.4,30.04,SW,215,0.0,0.0,79,0.00,,---,0.00,VWS V14.01,2013-08-28 01:00:00,
2013-08-27 21:05:00,78.1,71.4,30.04,SW,215,0.0,0.0,80,0.00,,---,0.00,VWS V14.01,2013-08-28 01:05:00,
2013-08-27 21:10:00,77.8,71.5,30.04,SW,215,0.0,0.0,81,0.00,,---,0.00,VWS V14.01,2013-08-28 01:10:00,
2013-08-27 21:15:00,77.6,71.3,30.04,SW,215,0.0,0.0,81,0.00,,---,0.00,VWS V14.01,2013-08-28 01:15:00,
2013-08-27 21:20:00,77.4,71.1,30.04,SW,215,0.0,0.0,81,0.00,,---,0.00,VWS V14.01,2013-08-28 01:20:00,
2013-08-27 21:26:00,77.2,71.3,30.04,SW,215,0.0,0.0,82,0.00,,---,0.00,VWS V14.01,2013-08-28 01:26:00,
2013-08-27 21:31:00,77.1,71.2,30.04,SW,217,0.0,0.0,82,0.00,,---,0.00,VWS V14.01,2013-08-28 01:31:00,
2013-08-27 21:36:00,76.9,71.0,30.04,SW,217,0.0,0.0,82,0.00,,---,0.00,VWS V14.01,2013-08-28 01:36:00,
2013-08-27 21:41:00,76.8,70.9,30.04,SW,217,0.0,0.0,82,0.00,,---,0.00,VWS V14.01,2013-08-28 01:41:00,
2013-08-27 21:46:00,76.7,71.2,30.04,SW,217,0.0,0.0,83,0.00,,---,0.00,VWS V14.01,2013-08-28 01:46:00,
2013-08-27 21:51:00,76.6,71.1,30.04,SW,217,0.0,0.0,83,0.00,,---,0.00,VWS V14.01,2013-08-28 01:51:00,
2013-08-27 21:56:00,76.4,70.9,30.05,SW,217,0.0,0.0,83,0.00,,---,0.00,VWS V14.01,2013-08-28 01:56:00,
2013-08-27 22:01:00,76.2,71.0,30.04,SW,217,0.0,0.0,84,0.00,,---,0.00,VWS V14.01,2013-08-28 02:01:00,
2013-08-27 22:06:00,76.1,70.6,30.04,SW,217,0.0,0.0,83,0.00,,---,0.00,VWS V14.01,2013-08-28 02:06:00,
2013-08-27 22:12:00,76.0,70.5,30.05,SW,218,0.0,0.0,83,0.00,,---,0.00,VWS V14.01,2013-08-28 02:12:00,
2013-08-27 22:17:00,75.9,70.4,30.05,SW,235,0.0,0.0,83,0.00,,---,0.00,VWS V14.01,2013-08-28 02:17:00,
2013-08-27 22:22:00,75.8,70.6,30.05,WSW,238,0.0,0.0,84,0.00,,---,0.00,VWS V14.01,2013-08-28 02:22:00,
2013-08-27 22:27:00,75.8,70.6,30.05,WSW,238,0.0,0.0,84,0.00,,---,0.00,VWS V14.01,2013-08-28 02:27:00,
2013-08-27 22:32:00,75.7,70.5,30.05,WSW,238,0.0,0.0,84,0.00,,---,0.00,VWS V14.01,2013-08-28 02:32:00,
2013-08-27 22:37:00,75.6,70.4,30.05,WSW,238,0.0,0.0,84,0.00,,---,0.00,VWS V14.01,2013-08-28 02:37:00,
2013-08-27 22:42:00,75.6,70.4,30.05,WSW,238,0.0,0.0,84,0.00,,---,0.00,VWS V14.01,2013-08-28 02:42:00,
2013-08-27 22:47:00,75.5,70.7,30.05,SW,219,0.0,0.0,85,0.00,,---,0.00,VWS V14.01,2013-08-28 02:47:00,
2013-08-27 22:53:00,75.4,70.6,30.05,SSW,208,0.0,0.0,85,0.00,,---,0.00,VWS V14.01,2013-08-28 02:53:00,
2013-08-27 22:58:00,75.3,70.5,30.05,SSW,208,0.0,0.0,85,0.00,,---,0.00,VWS V14.01,2013-08-28 02:58:00,
2013-08-27 23:03:00,75.2,70.4,30.05,SSW,208,0.0,0.0,85,0.00,,---,0.00,VWS V14.01,2013-08-28 03:03:00,
2013-08-27 23:08:00,75.1,70.6,30.05,SSW,208,0.0,0.0,86,0.00,,---,0.00,VWS V14.01,2013-08-28 03:08:00,
2013-08-27 23:13:00,75.0,70.5,30.05,SSW,212,0.0,0.0,86,0.00,,---,0.00,VWS V14.01,2013-08-28 03:13:00,
2013-08-27 23:18:00,74.9,70.8,30.06,West,259,0.0,0.0,87,0.00,,---,0.00,VWS V14.01,2013-08-28 03:18:00,
2013-08-27 23:23:00,74.9,70.8,30.06,WSW,250,0.0,0.0,87,0.00,,---,0.00,VWS V14.01,2013-08-28 03:23:00,
2013-08-27 23:28:00,74.8,70.7,30.06,WSW,250,0.0,0.0,87,0.00,,---,0.00,VWS V14.01,2013-08-28 03:28:00,
2013-08-27 23:34:00,74.7,70.6,30.06,WSW,250,0.0,0.0,87,0.00,,---,0.00,VWS V14.01,2013-08-28 03:34:00,
2013-08-27 23:39:00,74.6,70.5,30.06,WSW,250,0.0,0.0,87,0.00,,---,0.00,VWS V14.01,2013-08-28 03:39:00,
2013-08-27 23:44:00,74.4,70.3,30.06,WSW,250,0.0,0.0,87,0.00,,---,0.00,VWS V14.01,2013-08-28 03:44:00,
2013-08-27 23:49:00,74.3,70.2,30.06,WSW,250,0.0,0.0,87,0.00,,---,0.00,VWS V14.01,2013-08-28 03:49:00,
2013-08-27 23:54:00,74.2,70.4,30.06,WSW,250,0.0,0.0,88,0.00,,---,0.00,VWS V14.01,2013-08-28 03:54:00,
2013-08-27 23:59:00,74.2,70.1,30.06,WSW,250,0.0,0.0,87,0.00,,---,0.00,VWS V14.01,2013-08-28 03:59:00,